Wind_Speed
58 57 56 56 56 55 54 53 53 53 52 52 52 51 50 51 52 53 54 56 56 56 57 56 56 55 54 54 54 53 53 53 52 51 50 50 49 49 49 49 49 49 50 51 53 54 54 54 54 54 55 56 57 58 60 62 63 65 67 68 68 67 67 66 65 64 64 64 64 64 65 65 65 65 64 64 65 65 65 64 64 63 63 63 62
60 59 58 58 59 59 57 56 56 55 53 53 53 52 51 51 52 53 54 56 57 57 58 59 59 59 58 57 57 56 55 55 55 55 54 53 52 52 51 51 51 50 51 52 53 54 56 57 57 56 56 56 57 57 58 59 61 62 64 65 67 68 68 68 68 67 67 67 67 66 65 66 65 64 63 64 64 64 64 63 63 62 62 62 62
61 60 59 59 60 62 60 59 59 58 57 56 55 56 56 54 54 54 54 55 58 59 59 60 60 60 60 60 60 60 59 58 57 57 57 57 56 56 55 54 53 53 52 53 53 54 55 57 58 59 59 58 58 58 59 60 60 61 62 63 64 65 66 67 68 69 69 69 70 70 69 70 69 66 64 65 65 64 63 62 61 61 61 62 62
61 60 58 57 61 64 62 60 60 60 60 59 59 59 59 58 59 59 56 55 57 59 61 62 62 61 62 62 62 62 62 61 61 60 60 60 59 59 59 58 57 56 56 55 56 56 56 57 58 60 60 61 61 60 60 61 61 61 62 62 63 64 64 65 66 68 69 70 71 71 72 72 71 71 69 69 69 69 68 67 66 65 65 65 65
59 59 56 56 60 62 62 61 62 62 61 61 61 61 60 59 61 63 61 59 59 60 60 62 63 64 64 64 64 64 64 64 63 63 63 63 63 62 62 62 61 61 60 59 59 59 59 58 59 60 61 62 62 63 63 62 62 62 62 63 63 64 64 65 65 66 67 69 70 71 72 71 70 70 71 72 72 72 73 73 72 72 71 70 70
57 57 56 56 59 60 60 61 62 61 60 60 61 62 59 58 60 64 64 62 62 62 63 63 64 65 66 66 66 65 65 65 65 66 66 66 66 65 65 65 64 64 64 64 63 63 62 62 61 61 61 62 63 64 64 64 64 64 63 63 64 64 65 65 66 66 66 67 69 70 72 73 72 71 71 72 73 74 75 75 76 76 76 75 75
56 55 55 56 57 58 59 59 60 61 59 58 57 56 54 56 60 63 63 62 63 64 65 66 66 66 66 67 68 68 67 67 67 67 68 69 69 68 68 68 68 68 67 67 67 67 67 66 66 65 64 64 64 64 64 65 65 66 66 65 65 65 65 66 66 66 66 67 68 69 70 72 73 74 73 72 73 74 75 75 77 78 78 79 79
57 56 56 56 57 59 60 60 60 61 59 58 57 57 57 60 63 60 57 58 60 61 62 64 66 67 68 68 69 70 70 71 71 70 71 71 70 70 70 71 71 71 71 71 71 70 70 70 70 69 69 68 67 66 66 65 66 66 67 67 67 67 67 67 67 67 67 67 68 69 70 70 71 73 74 75 74 74 74 75 76 77 78 79 81
60 59 59 59 60 61 62 62 63 63 61 59 59 60 61 61 61 56 51 52 57 59 60 62 64 67 68 68 68 70 71 73 73 74 75 74 73 72 72 73 73 74 74 74 74 74 74 73 73 73 72 72 71 70 69 68 67 67 68 68 69 69 70 70 70 70 69 69 69 70 70 71 72 73 73 74 75 75 76 76 77 77 78 79 80
63 63 63 62 62 63 64 65 65 66 65 63 62 63 62 60 59 57 54 56 60 62 63 64 65 65 64 63 66 69 72 73 74 76 77 77 76 75 76 76 75 76 76 76 77 77 77 76 76 76 76 75 75 74 73 72 71 71 70 70 70 70 71 72 72 72 72 72 72 72 72 73 74 75 74 74 75 75 76 77 78 79 79 79 80
66 66 66 66 66 66 67 67 68 69 68 67 66 66 65 63 61 61 61 64 67 68 69 69 68 66 62 60 63 67 69 72 75 77 78 78 78 78 78 78 78 78 78 79 79 80 80 80 79 79 79 78 77 77 76 76 75 75 74 73 73 72 73 73 74 74 75 74 75 75 75 76 76 77 76 76 76 76 77 77 78 79 80 81 81
69 68 68 69 69 70 70 70 71 71 71 71 70 69 69 68 66 65 65 68 70 71 71 71 70 68 66 65 66 66 68 71 74 76 77 77 76 78 79 80 81 81 81 82 82 82 82 82 82 82 82 81 80 80 79 79 79 79 78 77 77 76 76 76 76 77 77 77 77 78 78 78 79 79 79 79 79 78 79 79 79 80 81 81 82
71 71 71 71 71 72 73 73 73 74 74 74 74 73 72 72 70 69 69 70 71 71 71 71 72 70 69 69 69 68 68 72 74 74 75 74 74 75 77 77 80 82 84 85 85 85 85 85 85 84 84 83 83 83 83 82 82 81 81 81 81 81 80 80 80 80 80 80 80 81 81 81 81 81 82 83 82 82 81 82 82 82 82 83 83
73 74 74 73 73 74 74 75 75 75 76 76 76 76 76 75 74 73 72 72 72 72 71 71 72 72 70 71 71 68 69 73 75 74 74 73 73 74 75 75 77 80 82 84 86 87 87 87 87 87 86 86 86 86 86 86 86 85 84 84 85 85 85 84 84 84 85 84 84 84 84 84 83 84 85 85 85 85 85 84 85 85 85 85 85
75 75 75 75 75 75 76 76 77 77 78 79 79 79 79 78 78 77 76 75 74 75 74 74 73 73 72 72 71 69 71 75 76 74 74 74 74 76 76 76 78 80 80 81 83 85 86 87 88 89 89 88 88 88 89 89 89 88 87 87 88 88 88 88 89 89 89 88 88 87 87 88 88 88 88 88 88 88 88 87 87 87 87 87 87
77 77 77 77 77 77 77 78 78 79 80 80 80 81 81 80 80 80 79 77 76 77 77 76 75 75 74 74 72 71 74 76 75 75 75 75 76 78 78 78 80 81 81 81 82 83 84 85 87 88 89 90 90 91 92 93 92 91 90 90 90 91 92 92 93 93 92 92 91 91 91 92 92 92 92 92 92 92 91 91 90 91 90 89 89
79 79 79 79 78 78 79 79 79 80 80 81 81 82 82 81 81 81 80 79 78 78 77 77 76 75 75 74 73 73 75 76 74 75 75 76 78 79 80 80 81 81 82 82 82 82 82 83 85 87 88 89 90 91 93 94 94 93 93 93 93 94 95 95 96 96 95 95 95 95 95 95 96 96 96 96 96 96 95 94 94 95 94 93 92
79 80 81 80 80 80 80 80 80 81 81 82 82 82 82 82 82 82 81 81 80 79 78 78 77 75 75 75 74 75 75 75 74 75 76 77 79 80 81 82 82 82 82 81 81 82 82 83 84 86 87 88 88 89 91 93 94 94 95 95 96 97 98 99 99 98 97 97 98 98 98 99 99 100 100 100 100 100 99 98 98 99 98 97 96
80 81 81 81 81 82 82 82 82 82 82 82 82 83 83 83 83 83 83 82 82 81 80 80 79 78 77 76 76 76 75 75 75 76 77 78 80 81 82 82 82 81 80 81 81 82 82 83 84 85 86 86 87 88 90 90 91 92 94 95 96 98 100 101 101 101 100 100 100 100 101 102 102 102 103 103 103 103 103 102 102 102 101 101 100
81 81 81 81 82 82 82 83 83 83 83 83 83 83 83 83 83 83 83 82 82 82 81 81 80 80 79 77 76 76 76 76 76 76 77 79 81 82 83 82 81 80 79 80 82 82 83 83 84 83 84 85 86 87 88 89 89 90 91 92 93 96 99 101 102 103 103 103 103 104 104 104 105 105 105 106 106 106 106 105 104 104 104 104 104
80 81 81 81 81 82 82 82 83 83 83 83 83 83 83 83 83 83 82 82 82 82 81 81 80 80 79 78 77 77 77 77 77 78 79 80 82 83 83 82 80 80 80 81 81 81 82 83 82 81 82 83 84 85 86 87 87 88 89 90 91 92 95 97 100 102 104 105 106 107 107 107 107 108 108 108 108 108 108 107 106 106 106 106 107
78 78 79 79 80 80 80 81 82 82 82 82 81 81 81 81 81 81 80 80 80 80 80 79 79 78 77 77 77 77 76 77 78 79 80 81 82 83 82 82 81 81 80 80 80 81 81 81 80 79 79 80 80 81 82 83 84 85 87 88 89 89 90 92 95 98 100 103 105 107 108 109 110 110 110 111 110 110 110 109 108 108 108 108 109
74 75 75 76 76 77 78 79 79 79 79 79 78 78 79 79 78 77 77 77 77 76 76 75 75 75 74 75 75 75 75 76 77 78 79 80 80 81 82 82 82 82 80 80 80 80 80 80 79 77 77 76 76 76 78 79 80 82 83 84 86 87 87 88 89 92 94 97 100 103 105 108 109 111 112 112 112 111 111 111 111 111 111 111 111
69 70 71 71 72 73 74 75 75 75 75 74 74 74 74 74 73 73 74 73 71 71 71 70 70 71 71 72 73 73 73 74 74 75 75 76 77 79 80 80 80 81 80 80 79 79 78 77 76 75 74 73 73 74 75 76 77 78 79 80 82 82 83 83 84 85 88 91 93 96 99 102 105 107 109 110 110 111 111 112 113 113 113 113 113
64 65 66 67 67 68 69 69 69 70 70 70 69 69 69 69 70 70 70 68 67 67 67 67 67 68 69 69 69 69 70 71 71 71 72 73 74 75 76 77 78 78 78 77 77 76 75 75 73 72 71 70 69 70 71 73 74 75 75 76 76 77 77 77 77 78 80 82 85 88 91 94 97 100 102 104 105 107 108 110 111 112 113 113 114
61 62 63 63 64 64 64 64 64 65 66 66 65 65 65 66 67 66 65 64 64 64 64 64 65 65 65 65 66 66 67 67 68 68 68 70 71 72 73 74 75 75 75 74 73 72 71 71 71 71 70 68 66 66 66 68 69 70 70 70 70 70 70 70 70 70 72 74 77 79 82 86 89 92 94 96 98 100 102 104 105 107 108 109 109
59 60 60 60 60 60 60 60 60 61 62 62 62 60 61 62 62 62 61 60 60 60 60 61 62 62 61 62 63 63 63 64 64 65 65 66 67 68 70 71 71 71 71 70 68 67 67 68 68 68 67 65 63 62 62 63 63 64 64 64 64 64 64 64 64 65 66 68 70 73 75 79 82 85 88 90 91 94 96 98 99 99 100 100 100
56 56 56 56 57 57 56 56 58 58 58 58 56 55 56 57 58 57 57 56 56 56 56 57 58 58 59 59 60 60 60 61 61 62 63 64 64 65 67 67 67 67 67 65 64 64 64 65 65 63 62 61 59 58 57 57 58 58 58 58 59 59 60 60 61 62 63 64 66 69 71 74 77 80 83 85 86 88 90 90 90 90 90 88 86
52 52 53 53 54 54 53 53 55 55 53 52 51 51 52 52 52 52 52 52 52 53 53 54 55 56 56 57 57 57 58 59 60 60 61 61 62 63 64 64 63 63 62 61 61 61 61 61 60 59 58 57 56 55 54 54 55 55 56 56 57 57 58 58 59 60 61 62 64 66 68 72 75 77 79 79 80 81 80 78 77 77 76 74 73
48 49 50 51 51 51 51 51 51 50 48 47 48 48 48 47 47 48 49 49 49 50 50 51 52 53 53 54 54 55 56 57 58 58 59 60 60 60 60 60 60 59 59 59 59 58 58 57 57 56 56 55 54 53 53 53 54 54 55 55 56 56 57 57 58 59 60 61 62 64 67 70 72 74 74 74 74 73 71 70 69 69 68 67 66
46 47 49 50 49 49 49 48 46 45 45 46 46 46 46 46 46 47 48 48 48 49 49 49 50 50 51 52 53 53 54 55 56 56 57 57 57 57 57 57 57 57 57 56 56 56 56 55 54 53 52 52 52 52 53 53 53 53 54 54 55 55 55 55 55 56 57 58 60 63 65 68 70 71 70 69 68 67 66 66 66 65 64 63 62
46 47 48 48 48 47 46 44 44 44 45 46 47 46 46 47 47 48 48 48 49 48 48 49 49 50 51 52 52 52 52 52 53 53 54 54 55 55 55 55 55 55 55 54 54 54 53 52 50 50 50 50 51 52 52 52 52 51 51 50 49 49 49 49 51 53 54 56 59 61 63 64 64 65 64 63 62 62 61 60 60 59 58 57 57
46 47 46 46 46 45 44 43 44 45 46 47 47 47 47 48 49 49 48 48 48 48 49 50 50 51 52 51 51 51 51 51 51 51 52 52 53 53 54 54 54 54 53 51 50 49 47 46 46 46 47 48 49 51 52 51 49 46 44 43 43 44 44 45 47 49 51 53 54 55 56 56 56 56 56 55 55 55 55 54 53 53 53 53 53
47 47 45 44 43 43 42 43 46 46 46 47 47 47 47 48 49 48 47 47 48 49 50 51 51 51 51 50 50 49 50 50 50 50 51 52 53 53 54 54 53 52 50 47 45 44 43 43 42 42 43 45 47 48 47 45 42 40 39 39 40 40 40 41 42 44 45 46 47 48 48 48 48 49 49 49 49 49 49 49 48 49 49 50 50
46 46 44 42 42 42 42 44 45 45 45 46 46 46 46 47 48 47 47 48 48 49 50 50 51 50 50 49 48 48 48 48 49 50 51 52 53 54 54 53 52 50 48 45 44 42 41 40 39 39 40 42 42 40 38 36 35 35 35 35 35 35 36 36 37 39 40 40 41 42 43 43 44 44 44 44 44 45 45 45 45 45 46 46 46
44 43 42 41 41 41 42 42 43 43 43 44 44 44 45 46 46 46 47 47 48 48 49 49 49 49 48 48 47 47 47 47 48 50 51 52 52 53 52 52 51 49 47 45 42 40 38 36 35 36 36 35 33 31 29 29 30 30 30 31 31 31 32 33 33 34 35 36 37 38 38 39 39 39 39 40 41 41 42 42 42 42 43 43 44
40 40 40 40 39 40 40 41 41 40 41 41 41 42 42 43 44 45 45 45 46 46 47 47 47 47 46 46 46 46 47 47 48 49 49 50 50 50 51 50 49 46 44 41 38 35 33 32 32 31 30 28 26 25 25 25 26 26 27 28 28 29 29 29 30 31 32 32 33 34 34 34 35 36 37 38 38 39 39 39 40 40 41 42 42
37 37 38 38 38 38 39 39 38 38 38 38 39 39 40 40 41 42 42 42 43 43 43 44 44 44 44 44 45 45 45 46 46 47 47 47 48 48 48 47 44 41 37 34 31 29 28 28 27 26 24 23 23 23 23 23 23 24 24 25 26 26 27 27 28 29 29 30 30 31 32 33 34 34 35 36 36 36 37 37 38 38 39 38 38
36 36 35 35 35 36 36 36 35 35 35 36 36 37 37 37 38 39 39 40 40 40 40 41 41 41 41 42 42 42 42 43 43 44 44 44 44 44 43 41 37 34 30 27 25 25 25 24 23 23 22 22 21 21 21 22 22 23 23 24 24 25 26 26 27 27 28 28 29 30 31 32 32 33 33 34 34 34 34 34 33 33 33 32 31
33 33 33 33 33 34 34 34 34 34 34 35 35 35 36 36 37 37 37 37 37 37 37 37 37 38 38 38 38 39 39 39 39 40 40 40 40 40 38 34 31 27 24 22 23 23 23 22 22 21 21 20 20 20 20 21 21 22 22 23 23 24 24 25 25 26 26 27 27 28 29 29 29 29 30 30 30 29 29 28 28 28 28 27 27
31 31 31 31 31 32 32 32 32 33 33 33 34 34 35 35 35 35 35 35 34 34 34 34 34 34 35 35 35 35 35 35 35 36 36 36 36 35 32 28 25 22 21 21 22 22 22 21 20 19 19 19 19 20 20 20 21 21 21 21 22 22 23 23 23 23 23 24 24 24 24 25 25 25 25 25 25 25 25 25 24 24 24 24 24
29 29 29 29 29 29 29 30 30 31 31 31 32 32 33 33 33 32 32 32 31 31 31 31 31 31 32 32 32 32 32 32 32 33 32 32 31 30 27 24 21 20 20 20 21 21 21 20 18 17 18 18 18 18 18 19 19 19 19 19 20 20 20 20 19 20 20 20 21 21 21 21 21 21 21 22 22 22 22 22 23 23 22 22 22
26 26 25 26 26 26 26 27 27 28 28 29 29 30 30 30 30 30 29 29 29 29 29 29 29 29 29 29 29 29 29 29 29 29 28 27 28 26 23 21 20 20 20 19 19 19 19 17 16 15 16 17 17 17 17 16 17 17 17 17 17 17 17 17 17 17 18 18 19 19 19 19 19 19 19 20 20 21 21 21 21 21 21 20 20
23 23 23 23 23 24 24 24 24 25 26 26 27 27 27 27 27 27 27 28 28 28 28 27 27 27 27 27 27 26 26 26 26 25 24 25 25 24 22 21 20 19 18 18 18 18 17 15 14 15 15 15 15 15 15 15 15 15 15 16 16 15 15 15 16 16 17 17 17 17 17 17 18 18 18 19 19 19 20 20 20 19 19 19 19
22 22 22 22 22 22 22 22 23 23 24 25 25 25 25 26 26 26 26 26 26 26 26 26 26 26 25 25 24 24 24 24 24 23 22 23 24 23 21 20 19 17 16 17 17 17 15 14 14 15 15 15 15 14 14 14 14 14 14 15 14 14 14 14 14 14 14 14 15 15 15 16 16 17 17 17 18 18 18 18 18 18 18 18 18
21 21 22 22 21 21 21 22 22 22 23 24 24 25 25 25 25 25 25 25 25 25 25 25 24 24 23 23 22 22 22 23 23 22 21 22 22 21 20 18 16 15 15 16 17 16 15 14 15 15 15 14 14 14 14 14 14 13 13 13 12 12 12 12 12 12 12 12 13 14 14 14 14 15 15 15 16 16 16 16 16 16 16 17 17
21 22 22 22 22 22 22 22 22 23 23 24 24 25 25 26 26 26 26 25 25 25 24 24 23 23 22 22 21 21 22 22 22 21 20 20 20 19 18 16 15 15 16 17 18 17 15 15 15 15 15 14 14 13 13 13 12 12 12 11 11 10 10 10 10 11 11 12 12 12 12 12 12 12 12 13 13 13 13 13 14 14 15 15 16
23 23 23 23 23 23 23 23 24 24 24 24 25 25 26 26 26 26 26 26 25 25 24 24 23 23 23 22 21 21 22 22 22 20 19 19 18 17 16 15 14 15 17 18 19 17 16 16 16 16 15 14 13 12 12 12 11 11 11 11 10 8 8 9 9 10 10 11 11 10 10 10 10 10 10 10 10 10 11 11 12 12 13 14 14
25 25 24 24 24 25 25 25 25 25 25 25 25 26 26 27 27 27 27 26 26 25 25 24 24 23 23 22 22 21 21 21 21 20 18 17 17 16 15 15 15 17 19 20 20 19 18 17 17 16 15 14 13 12 11 11 11 10 10 10 9 8 8 8 9 10 10 10 10 9 8 8 8 8 8 8 8 9 9 9 10 11 11 12 12
27 26 25 25 26 27 27 27 27 28 28 28 28 28 28 28 29 29 28 28 27 27 26 26 25 25 24 23 22 21 21 21 21 20 18 17 16 15 15 15 17 19 20 21 21 20 19 18 17 16 15 14 12 11 11 11 10 10 10 10 10 9 9 9 10 10 10 10 9 8 7 7 7 7 7 7 7 7 7 8 8 9 10 10 11
28 27 26 26 27 28 28 29 29 29 30 30 30 30 31 31 31 31 30 29 29 28 28 27 26 26 25 23 22 21 21 21 21 20 18 17 17 16 16 17 19 20 22 23 23 22 21 20 18 17 15 14 12 12 12 11 10 10 10 11 11 11 12 12 11 11 10 10 9 8 7 7 6 6 6 6 6 5 6 7 8 8 9 10 10
Wind_Direction
258 258 257 257 257 256 255 255 255 255 255 254 254 254 253 254 255 255 254 255 255 255 254 254 253 252 251 250 250 249 248 247 247 246 245 245 244 244 245 245 246 246 245 243 241 239 237 238 239 240 240 241 242 243 244 245 245 245 245 245 244 241 239 240 241 241 240 242 245 247 248 248 249 250 250 251 251 252 254 255 255 256 255 255 255
258 258 258 259 258 257 256 255 255 255 254 255 255 254 253 253 254 254 253 253 254 254 254 254 253 252 251 251 250 250 250 249 248 247 247 246 246 245 245 245 245 246 246 246 245 243 241 240 239 239 240 240 240 242 243 243 245 245 246 245 245 245 242 241 241 241 241 240 241 244 246 247 249 249 249 251 252 253 254 255 256 257 257 257 256
259 258 258 259 260 258 256 255 255 255 254 254 254 254 253 252 252 253 253 253 253 254 254 253 253 253 252 252 251 250 250 249 249 248 248 247 247 247 246 245 245 245 245 246 246 245 244 243 241 240 240 240 241 241 241 242 242 243 245 245 245 245 245 244 242 242 242 240 239 240 243 246 248 247 246 246 248 249 250 252 253 254 255 255 255
260 259 258 259 259 258 257 256 255 255 254 253 253 254 254 253 252 252 253 254 255 255 254 253 253 253 253 252 252 251 250 249 249 249 248 248 248 247 247 246 245 245 245 245 245 245 245 244 244 243 242 241 241 242 242 242 242 242 243 244 244 245 246 246 245 244 244 243 241 240 240 242 245 247 246 245 245 245 245 247 248 249 250 250 251
259 258 256 255 257 258 257 256 254 253 254 254 253 252 252 253 253 251 252 254 257 256 255 254 253 253 252 252 252 252 251 251 250 249 248 248 248 247 247 248 247 247 246 245 245 245 245 245 245 244 244 243 242 243 243 243 243 243 244 244 244 245 245 245 246 246 246 246 244 242 242 242 243 244 245 246 246 246 246 246 247 248 248 249 249
258 258 256 255 256 259 258 256 254 252 251 252 253 254 254 254 255 254 252 253 255 256 257 257 256 253 252 251 251 251 251 251 251 251 250 249 248 248 248 248 248 248 248 247 246 246 245 245 245 245 245 245 244 244 244 244 245 244 245 245 245 246 246 246 246 246 246 246 246 245 245 245 245 244 244 244 245 246 247 248 248 248 249 249 250
256 257 258 257 258 259 258 257 256 254 250 248 249 252 254 254 254 254 254 253 254 256 258 258 257 255 253 253 252 252 251 251 251 251 251 250 249 249 248 248 248 248 248 248 248 247 247 246 246 245 245 245 245 245 245 245 246 246 246 246 246 246 247 247 247 247 247 247 248 248 247 246 246 247 246 245 244 245 246 247 248 248 249 250 250
257 257 256 257 257 258 258 258 258 257 254 250 245 244 246 248 250 252 254 255 256 257 258 258 257 256 256 255 254 254 253 252 251 251 250 250 250 250 250 249 249 248 249 249 249 248 248 248 247 247 246 246 246 246 246 246 247 247 247 247 247 247 247 248 248 248 247 248 248 249 249 248 248 248 248 247 247 246 246 247 247 248 248 249 250
259 258 257 257 257 258 259 259 259 259 257 255 250 247 247 248 249 250 250 253 253 252 253 255 256 256 257 256 256 255 254 254 253 252 251 250 250 250 250 250 250 249 249 249 249 249 249 249 249 249 248 248 247 247 247 247 247 247 247 247 248 248 248 248 249 249 249 248 248 249 249 250 250 249 249 248 248 248 248 248 249 249 249 250 250
259 259 259 259 258 258 259 259 260 260 259 258 256 254 252 250 248 246 243 246 248 248 249 252 253 254 255 256 256 255 255 255 254 253 252 251 250 250 250 250 250 250 250 250 250 250 250 250 250 250 250 249 249 249 248 248 248 248 248 248 248 248 249 249 249 250 250 250 250 249 249 250 251 251 250 250 249 249 249 249 249 250 251 251 251
259 259 260 260 259 259 259 259 260 260 261 260 259 258 257 254 251 247 244 244 247 248 250 252 252 252 252 254 255 255 255 256 256 255 254 253 252 251 251 251 251 251 251 251 251 250 250 250 250 250 251 250 250 250 250 250 250 250 249 249 249 249 249 250 250 250 250 251 251 251 250 251 251 252 252 252 251 251 251 251 250 250 251 251 252
259 259 259 259 260 260 260 260 260 261 261 261 260 260 259 258 256 253 250 249 249 250 252 253 253 252 251 252 254 255 255 257 257 258 257 256 254 254 253 253 252 252 251 251 251 251 250 250 250 250 251 251 251 251 251 251 251 251 251 251 250 250 250 250 250 250 250 250 251 251 251 251 252 252 253 252 252 252 252 253 253 252 252 252 253
259 259 258 258 259 259 260 260 261 261 262 262 262 261 261 260 259 257 256 254 254 254 254 254 254 254 253 253 253 254 255 256 257 257 259 259 258 256 255 254 254 254 253 252 252 251 251 251 251 250 250 251 251 251 251 251 251 251 251 251 251 251 251 251 251 251 251 251 251 251 251 251 252 253 253 253 253 252 252 252 253 253 254 254 254
260 260 260 259 259 259 259 260 261 261 261 262 262 262 262 262 261 260 259 258 257 257 256 256 256 255 254 254 254 254 255 256 256 257 258 258 259 258 257 255 255 254 254 254 253 253 252 251 251 251 251 251 251 251 251 251 251 251 251 251 252 251 251 251 251 251 252 252 252 252 252 253 252 253 253 254 254 254 253 253 253 253 253 254 255
261 261 260 260 260 259 259 259 259 260 260 261 261 262 262 262 262 262 261 260 260 260 259 258 258 258 257 256 255 255 255 256 257 257 257 258 258 258 257 257 256 255 255 254 254 254 254 253 253 252 252 251 251 251 251 251 251 251 251 252 252 252 252 252 252 251 252 252 252 253 253 254 254 253 254 254 254 255 255 255 255 255 254 255 255
262 262 261 260 260 260 259 259 259 259 260 260 261 261 262 262 262 262 262 262 261 261 261 260 260 260 260 259 258 257 257 257 258 258 259 259 258 258 258 257 257 257 256 256 255 255 255 255 255 254 253 252 251 251 251 251 251 251 251 251 252 252 252 252 252 252 252 252 252 253 253 254 255 255 254 255 255 255 255 255 256 256 256 256 256
262 262 262 262 261 261 260 260 260 260 260 261 261 262 262 262 263 263 263 263 262 262 262 261 261 260 261 261 260 259 259 259 259 260 260 260 260 259 259 258 257 257 257 257 256 256 256 256 256 256 255 254 253 252 252 252 252 251 251 251 251 252 252 252 252 252 252 253 253 253 253 253 254 255 255 255 255 255 256 256 256 256 256 256 257
262 262 262 262 262 262 262 261 261 261 261 261 262 262 263 263 263 264 264 264 264 263 263 263 262 261 261 261 261 260 261 261 261 261 260 260 260 260 259 259 258 258 258 258 258 258 257 257 257 257 257 256 256 255 254 253 253 252 251 251 251 252 252 252 252 252 252 253 253 253 254 254 254 254 255 255 255 256 256 256 256 257 257 257 257
262 262 262 262 262 262 262 262 262 262 261 261 262 262 263 263 263 264 264 264 264 264 264 264 264 263 262 262 261 261 261 261 261 261 260 260 260 260 259 259 259 259 259 259 259 258 258 257 257 257 258 258 257 257 257 256 255 254 252 251 251 252 252 252 252 252 252 252 252 253 253 254 254 255 255 255 256 256 256 256 256 257 258 258 258
262 262 262 262 262 262 262 262 262 262 262 262 261 262 262 262 263 263 263 264 264 264 264 264 264 264 263 263 262 262 262 261 260 260 260 260 260 260 259 259 259 259 259 259 259 258 258 257 257 257 258 258 258 258 258 258 257 256 255 253 252 251 252 252 253 253 253 252 253 253 253 253 254 254 255 255 256 256 256 257 257 257 258 258 258
261 261 261 261 261 261 261 261 261 261 261 261 261 261 261 262 262 262 263 263 263 263 263 263 263 263 264 263 263 262 262 261 261 260 259 259 259 259 260 260 260 260 260 259 259 259 259 259 258 257 257 257 257 258 258 258 258 258 257 256 255 253 252 252 252 253 253 253 253 253 253 253 253 254 254 255 255 256 256 257 257 258 258 258 259
260 260 260 259 259 259 260 260 260 260 260 260 260 261 261 261 261 262 262 262 262 262 262 263 263 263 263 263 263 262 262 261 260 259 259 259 259 260 260 261 261 260 260 260 261 261 261 261 260 260 259 258 258 258 258 258 258 258 258 257 257 255 254 253 253 253 253 253 253 253 254 254 254 254 255 255 255 256 256 257 257 257 258 258 258
259 259 259 259 259 258 258 259 259 259 259 260 260 260 260 260 260 261 260 260 260 260 261 261 261 262 262 262 262 261 261 260 260 259 259 260 260 261 261 261 262 262 262 262 262 262 262 263 263 263 262 262 261 261 260 260 260 259 259 258 258 257 257 256 255 254 254 254 253 254 254 254 254 255 255 256 256 256 257 257 257 258 258 258 258
258 258 258 258 258 258 258 258 259 260 260 260 260 260 261 261 261 260 260 260 260 260 261 261 261 261 261 261 261 261 261 261 261 261 261 261 261 261 262 262 262 263 263 263 263 263 264 264 264 264 264 263 262 262 261 261 261 261 260 260 260 259 259 258 257 256 255 255 255 255 255 255 255 255 256 256 257 257 257 258 258 258 259 259 259
258 258 257 257 257 257 257 257 258 259 260 260 260 260 261 261 261 260 261 261 261 261 261 261 261 260 260 260 260 261 261 261 262 262 262 262 262 262 262 263 263 263 263 263 264 264 265 265 266 266 266 265 263 262 261 261 261 261 261 261 261 261 261 260 259 258 257 256 255 255 255 256 256 256 256 257 257 257 257 257 258 258 259 259 259
257 257 257 256 256 256 257 257 257 258 258 259 258 259 259 259 260 260 260 260 260 260 260 260 260 260 260 260 260 260 261 261 262 262 262 262 263 263 263 263 263 263 264 264 264 265 265 266 267 267 267 266 265 263 263 262 262 262 262 262 262 261 261 261 260 259 257 256 255 255 255 255 255 256 256 256 256 256 257 257 257 258 258 259 259
257 257 257 258 258 258 258 258 258 257 257 258 258 258 258 259 260 260 260 260 260 260 259 259 260 260 260 260 260 260 261 261 262 262 262 262 262 263 263 263 263 264 264 265 266 266 267 267 267 267 267 267 267 266 265 264 264 264 264 263 263 262 261 260 259 257 256 255 254 254 254 254 254 255 255 255 256 256 256 257 258 258 259 260 261
257 258 258 258 259 259 259 258 258 258 258 259 259 259 259 259 259 259 260 259 259 259 258 258 259 259 259 259 260 261 261 261 261 262 262 262 262 262 263 263 264 265 266 267 268 268 268 267 267 268 268 269 269 268 267 267 266 266 265 265 263 262 260 258 257 255 253 252 252 252 252 253 253 254 254 255 256 256 258 259 260 261 263 264 266
257 258 259 259 259 259 259 258 258 259 259 260 261 260 259 258 259 259 259 259 258 257 257 257 257 257 258 258 259 259 260 261 261 261 261 261 262 262 263 264 265 266 267 268 268 268 268 268 269 270 271 271 270 270 270 269 268 267 266 265 263 261 259 257 255 253 252 250 250 250 251 252 253 254 255 256 258 259 261 263 265 266 268 269 269
259 259 259 259 258 258 258 257 258 259 260 260 259 259 259 258 258 258 257 257 256 256 256 256 256 257 257 258 258 258 258 259 260 260 261 261 262 263 264 265 267 267 268 268 269 269 270 271 271 271 271 272 273 273 273 272 270 268 266 264 262 260 258 256 254 253 252 251 251 251 251 252 253 255 257 259 261 264 266 268 268 269 269 269 268
259 259 259 258 258 257 257 257 258 259 259 258 257 257 257 257 256 255 255 255 255 255 255 256 256 256 257 257 257 257 257 257 258 260 261 262 264 265 266 267 268 268 269 269 270 271 271 272 273 274 275 276 276 275 274 272 270 267 265 262 261 259 259 258 257 256 256 255 254 253 253 254 256 258 260 263 265 266 267 268 267 267 266 266 265
258 257 257 258 258 258 258 258 257 256 256 256 255 255 255 255 255 254 254 255 255 255 256 256 256 256 256 256 257 257 257 258 259 260 262 263 264 266 267 268 268 269 270 270 270 271 272 274 276 277 278 277 276 275 272 270 267 265 264 263 263 263 262 261 260 258 257 256 255 255 256 258 259 261 263 264 265 265 265 264 264 264 264 263 263
258 258 257 257 257 258 258 258 257 256 255 255 255 254 254 254 254 254 254 255 255 256 256 256 256 256 256 257 258 259 260 261 261 262 263 264 266 267 268 268 269 269 270 271 272 273 275 277 278 277 276 274 272 270 268 267 267 268 268 269 268 265 262 259 258 258 257 257 257 258 260 261 262 262 263 262 262 262 262 262 262 262 262 262 262
259 258 257 257 256 256 256 256 255 254 254 254 254 254 254 254 254 254 254 254 254 254 254 254 255 256 257 258 258 259 260 261 262 263 264 265 266 267 268 269 270 271 273 275 277 279 280 281 280 277 273 269 266 265 267 269 271 271 270 268 266 264 262 260 260 259 259 260 260 260 261 261 261 261 261 261 261 262 262 262 262 261 261 261 261
257 258 258 257 257 256 254 253 253 253 253 252 252 252 252 252 253 253 253 252 252 252 253 254 255 256 257 258 258 258 259 259 260 261 262 263 264 266 267 269 272 274 277 279 282 283 284 282 278 273 268 266 265 267 269 270 269 266 264 263 263 262 262 261 260 259 260 260 260 260 260 260 260 260 260 260 260 260 260 260 260 260 261 261 262
255 256 257 257 256 255 254 253 253 253 252 252 251 251 251 251 251 251 250 250 251 252 252 253 254 255 256 257 257 258 258 257 257 258 259 260 262 265 267 270 272 275 279 282 284 285 283 279 273 268 265 265 266 267 265 263 262 262 262 263 262 262 261 260 260 259 259 259 258 258 258 259 259 259 259 258 258 258 259 260 260 260 261 261 262
254 255 255 255 254 254 254 253 253 253 253 252 252 251 250 250 250 249 249 249 249 250 251 252 253 254 254 255 255 255 255 256 256 257 258 260 262 265 267 270 273 276 279 282 283 281 277 271 266 265 265 266 266 264 263 262 263 263 264 263 263 263 262 261 260 259 259 259 258 259 259 259 258 258 257 257 258 258 259 259 259 259 260 260 261
252 252 253 253 253 252 252 252 252 251 251 251 250 249 248 248 248 248 248 248 248 248 249 250 250 251 252 252 253 253 254 255 256 258 259 261 263 266 268 271 274 278 280 281 279 274 268 265 265 266 266 267 266 266 265 264 264 263 262 261 261 260 259 258 258 258 258 258 258 258 257 257 257 257 258 259 259 259 259 258 258 258 259 260 260
250 250 250 251 250 250 250 249 249 248 247 247 247 247 246 246 246 246 246 246 246 246 247 247 248 249 250 251 252 253 254 255 257 259 261 263 265 268 270 273 277 280 280 277 273 268 266 266 266 266 265 264 263 262 261 259 258 256 255 254 253 253 254 254 254 255 255 256 256 256 256 256 256 257 257 257 257 257 257 257 257 257 258 259 258
248 248 248 247 247 247 246 246 245 245 244 244 243 243 243 243 243 243 243 244 244 245 245 246 246 247 248 249 251 252 253 255 257 260 262 265 267 270 273 277 279 279 277 272 268 266 265 264 262 260 258 257 255 253 251 250 249 249 249 249 249 250 251 251 252 253 253 253 253 253 253 252 252 252 252 253 254 255 255 255 256 256 257 257 257
244 244 244 244 244 244 243 243 243 242 241 241 240 240 240 240 240 240 241 241 242 243 243 244 244 245 246 247 249 251 253 256 258 261 263 266 269 273 276 278 278 276 272 267 263 261 259 256 254 252 249 247 246 245 244 244 244 245 246 247 248 249 250 251 252 252 252 251 251 251 251 250 250 251 252 253 254 255 255 256 256 256 256 256 256
242 242 242 242 241 240 240 239 238 238 238 237 237 237 237 236 236 236 237 237 238 238 239 240 241 242 244 246 248 251 253 256 259 262 265 269 272 274 277 278 276 272 267 260 256 253 251 248 246 243 242 242 242 242 242 242 244 245 247 249 251 252 253 254 254 254 253 252 252 251 251 252 252 253 254 255 255 255 255 255 255 255 255 255 256
239 239 238 237 236 235 234 234 233 233 232 232 231 231 231 231 231 232 232 232 233 233 234 236 238 240 242 244 247 250 253 256 260 263 267 270 272 274 276 275 271 265 259 253 249 246 244 242 239 238 239 241 243 244 245 247 249 251 254 256 257 257 258 258 257 256 255 253 252 252 252 253 253 253 253 253 252 252 252 252 253 254 255 255 256
233 233 231 230 230 229 228 227 227 226 225 225 225 225 225 225 225 226 226 227 228 229 231 232 234 236 239 242 245 249 252 256 260 263 266 268 271 273 273 269 263 257 251 247 244 242 240 237 235 235 238 241 244 247 250 253 256 258 259 260 261 261 261 260 258 256 254 252 251 250 248 247 247 247 248 249 250 250 251 251 252 253 255 256 258
226 227 226 225 225 225 224 223 223 221 220 220 219 219 219 220 220 221 222 223 224 226 227 229 231 234 237 240 244 248 252 256 259 262 264 266 268 269 267 261 255 249 245 242 240 238 235 233 234 236 238 240 244 248 250 253 255 257 258 259 259 260 260 259 256 252 250 247 245 242 240 239 240 243 245 248 249 250 251 251 252 253 255 257 259
221 223 225 224 224 223 223 222 221 220 219 218 217 216 215 215 215 216 217 218 220 222 224 227 230 233 236 239 243 247 251 255 258 260 261 262 263 262 258 252 247 244 242 239 237 235 231 231 234 237 238 240 244 247 249 250 252 254 256 257 258 259 258 255 251 246 243 239 236 234 233 234 237 240 244 247 249 250 250 251 252 253 254 256 259
217 219 221 222 222 222 221 219 219 218 218 217 216 214 212 210 210 210 212 214 216 219 222 226 229 233 236 240 243 247 251 254 257 258 258 258 257 255 250 245 242 241 239 237 234 232 230 231 234 236 238 240 243 246 248 249 251 254 257 258 258 257 254 248 244 240 237 233 230 229 230 232 236 242 247 250 251 251 251 251 252 253 256 259 262
216 216 218 218 219 219 218 217 215 215 215 214 213 212 210 208 207 208 210 212 215 219 223 227 231 235 237 240 243 246 250 254 256 258 257 255 252 249 245 240 238 237 236 234 232 230 229 230 233 235 237 240 242 246 249 251 253 256 259 260 259 256 248 241 237 234 231 229 227 226 229 236 242 248 253 255 255 255 253 254 255 258 262 264 265
217 217 217 216 216 215 215 214 212 211 211 211 211 211 210 209 209 209 211 213 217 221 226 230 234 238 240 242 244 247 250 254 256 258 256 252 249 246 240 235 233 232 231 231 230 229 229 230 231 233 236 239 242 246 249 251 254 257 258 259 259 253 241 234 231 228 227 226 225 224 229 240 250 257 260 259 256 255 256 257 261 265 268 269 270
218 218 217 216 215 214 213 213 211 209 209 210 211 212 212 212 212 213 215 217 221 225 229 233 237 241 244 246 248 249 250 253 256 257 255 251 247 242 237 231 229 228 227 228 229 229 229 229 230 232 235 238 242 246 249 251 253 253 252 252 251 246 236 229 227 226 226 227 226 225 229 240 251 261 264 261 257 258 262 266 269 272 273 273 272
217 218 218 217 216 215 215 216 215 213 213 213 214 214 215 216 217 219 221 223 226 229 232 236 240 244 248 251 251 250 250 251 254 255 254 251 246 240 233 228 225 225 225 226 228 229 229 228 228 230 234 237 240 244 248 249 248 245 243 242 242 240 234 228 224 224 225 228 228 228 230 235 243 252 255 255 257 264 271 274 275 275 273 272 269
Height
10512 10514 10516 10517 10517 10519 10521 10523 10523 10524 10527 10528 10529 10531 10532 10533 10533 10533 10534 10535 10536 10537 10538 10539 10540 10542 10543 10545 10546 10548 10549 10551 10552 10554 10556 10558 10559 10560 10562 10564 10566 10567 10569 10570 10571 10573 10574 10575 10577 10578 10580 10582 10583 10585 10586 10587 10589 10590 10592 10594 10596 10599 10601 10602 10604 10607 10609 10610 10610 10612 10614 10616 10618 10620 10622 10623 10624 10625 10627 10629 10631 10632 10633 10634 10636
10504 10506 10508 10509 10509 10510 10513 10515 10515 10518 10520 10522 10522 10523 10525 10526 10526 10525 10526 10527 10528 10530 10530 10531 10532 10534 10536 10538 10539 10541 10542 10544 10546 10547 10549 10551 10553 10554 10556 10557 10559 10561 10562 10564 10565 10566 10567 10569 10570 10571 10572 10574 10575 10576 10578 10579 10581 10582 10584 10586 10588 10590 10593 10595 10597 10599 10601 10604 10605 10605 10607 10609 10611 10613 10615 10616 10617 10618 10620 10622 10624 10624 10626 10627 10628
10497 10499 10501 10502 10501 10501 10504 10507 10508 10510 10512 10514 10515 10514 10516 10519 10519 10519 10520 10520 10520 10522 10523 10523 10524 10527 10529 10530 10531 10533 10534 10536 10538 10540 10542 10544 10545 10547 10548 10550 10552 10553 10555 10556 10557 10559 10560 10561 10562 10564 10565 10566 10567 10569 10570 10571 10573 10574 10575 10577 10579 10581 10584 10586 10589 10591 10592 10595 10598 10599 10600 10601 10603 10605 10608 10609 10609 10611 10612 10614 10616 10617 10618 10619 10620
10488 10491 10493 10495 10493 10492 10495 10498 10499 10501 10503 10505 10506 10506 10508 10512 10513 10513 10514 10513 10512 10514 10514 10515 10517 10519 10520 10522 10523 10524 10526 10528 10530 10532 10534 10535 10537 10538 10540 10541 10543 10545 10547 10548 10549 10550 10552 10553 10554 10556 10557 10559 10560 10561 10563 10564 10566 10567 10568 10569 10571 10572 10574 10577 10579 10582 10583 10585 10588 10591 10592 10593 10595 10597 10599 10601 10602 10603 10604 10606 10608 10609 10610 10611 10613
10479 10481 10485 10486 10484 10483 10486 10489 10490 10492 10494 10495 10497 10498 10501 10503 10505 10506 10507 10507 10507 10506 10506 10507 10509 10510 10512 10513 10514 10516 10518 10520 10522 10524 10525 10527 10528 10530 10531 10533 10535 10537 10538 10540 10541 10542 10543 10545 10546 10547 10549 10550 10552 10553 10555 10556 10558 10560 10561 10562 10563 10565 10566 10568 10570 10572 10574 10575 10578 10581 10583 10584 10586 10588 10589 10591 10593 10595 10596 10597 10599 10600 10601 10603 10604
10471 10472 10475 10477 10476 10476 10477 10478 10480 10483 10486 10486 10488 10491 10495 10497 10498 10498 10500 10501 10501 10499 10498 10498 10499 10501 10502 10504 10505 10507 10509 10511 10513 10514 10516 10517 10519 10521 10523 10525 10526 10528 10529 10531 10532 10533 10535 10536 10537 10539 10540 10542 10543 10545 10547 10548 10550 10552 10553 10555 10556 10557 10558 10560 10562 10564 10566 10567 10568 10571 10573 10575 10576 10578 10579 10582 10583 10585 10586 10588 10590 10591 10592 10594 10595
10465 10466 10467 10468 10468 10468 10468 10469 10470 10473 10477 10480 10482 10486 10491 10491 10490 10490 10491 10493 10493 10492 10490 10490 10490 10492 10494 10495 10497 10499 10501 10503 10504 10506 10507 10507 10510 10513 10514 10516 10517 10518 10520 10521 10522 10524 10526 10527 10528 10530 10532 10533 10535 10537 10539 10540 10542 10544 10546 10547 10548 10549 10550 10552 10554 10556 10557 10559 10560 10561 10563 10565 10566 10567 10569 10572 10573 10574 10577 10579 10580 10581 10583 10585 10586
10457 10459 10460 10460 10460 10460 10459 10461 10462 10463 10467 10472 10474 10477 10480 10480 10480 10482 10481 10481 10483 10484 10483 10482 10482 10483 10485 10487 10489 10491 10492 10493 10494 10495 10496 10497 10500 10504 10505 10506 10508 10509 10510 10512 10513 10514 10516 10518 10519 10521 10523 10525 10527 10529 10530 10533 10534 10536 10537 10539 10540 10541 10542 10543 10544 10547 10549 10551 10552 10552 10553 10555 10556 10557 10558 10561 10563 10565 10567 10569 10570 10571 10573 10575 10575
10448 10449 10451 10452 10452 10452 10452 10452 10453 10454 10457 10461 10463 10465 10468 10470 10472 10475 10473 10470 10472 10474 10474 10474 10474 10476 10477 10479 10481 10481 10481 10482 10483 10484 10485 10487 10491 10494 10495 10496 10498 10499 10500 10502 10504 10505 10507 10509 10510 10512 10514 10516 10518 10520 10522 10524 10526 10527 10529 10530 10531 10532 10533 10534 10535 10537 10539 10541 10542 10543 10544 10545 10545 10546 10548 10551 10553 10555 10557 10559 10560 10560 10562 10564 10565
10439 10440 10441 10442 10443 10444 10444 10444 10444 10445 10447 10450 10452 10454 10457 10461 10464 10467 10466 10463 10462 10463 10465 10465 10466 10469 10471 10470 10471 10472 10471 10472 10471 10470 10472 10476 10481 10484 10485 10486 10488 10489 10491 10492 10494 10495 10497 10499 10501 10502 10504 10507 10509 10511 10514 10516 10517 10518 10520 10521 10523 10523 10524 10525 10526 10527 10529 10531 10532 10533 10535 10535 10534 10535 10538 10540 10543 10545 10546 10548 10549 10549 10551 10553 10554
10430 10431 10432 10433 10434 10434 10435 10435 10435 10436 10437 10440 10442 10443 10446 10450 10454 10456 10457 10456 10454 10454 10456 10456 10457 10462 10464 10462 10462 10463 10463 10461 10459 10458 10462 10466 10471 10473 10474 10477 10479 10480 10481 10482 10483 10484 10486 10488 10490 10492 10494 10497 10500 10502 10504 10507 10508 10509 10511 10512 10514 10515 10516 10516 10517 10518 10519 10520 10521 10522 10524 10524 10523 10524 10528 10530 10532 10534 10535 10537 10538 10539 10540 10542 10543
10421 10422 10423 10424 10424 10424 10425 10426 10426 10427 10428 10429 10431 10434 10435 10438 10441 10444 10446 10446 10445 10446 10447 10448 10448 10452 10455 10454 10454 10455 10456 10453 10449 10449 10453 10457 10460 10462 10464 10467 10468 10469 10470 10471 10471 10473 10475 10477 10479 10482 10484 10486 10489 10492 10494 10496 10498 10500 10501 10503 10504 10506 10507 10508 10508 10508 10509 10510 10511 10511 10512 10513 10514 10515 10516 10518 10520 10523 10525 10525 10527 10528 10529 10530 10532
10410 10412 10413 10415 10415 10415 10416 10416 10417 10417 10418 10418 10420 10422 10424 10426 10429 10432 10433 10434 10435 10436 10437 10438 10438 10441 10444 10445 10445 10448 10449 10444 10440 10442 10444 10447 10450 10451 10453 10456 10456 10455 10457 10459 10459 10461 10464 10466 10468 10471 10474 10476 10478 10481 10483 10485 10486 10489 10491 10492 10493 10495 10496 10497 10497 10497 10498 10499 10500 10500 10500 10502 10505 10505 10504 10505 10508 10511 10513 10515 10515 10517 10518 10519 10521
10400 10401 10402 10404 10405 10406 10407 10407 10407 10407 10407 10408 10409 10410 10412 10414 10416 10419 10420 10422 10423 10424 10425 10427 10427 10429 10433 10434 10435 10441 10441 10433 10430 10435 10436 10438 10439 10439 10441 10445 10443 10442 10445 10446 10447 10449 10452 10454 10457 10459 10462 10466 10468 10470 10471 10472 10474 10477 10479 10480 10482 10483 10484 10485 10486 10486 10487 10487 10489 10490 10489 10491 10494 10494 10493 10494 10496 10498 10500 10503 10504 10505 10507 10509 10510
10389 10390 10390 10392 10393 10395 10396 10396 10397 10397 10397 10397 10398 10399 10400 10402 10404 10405 10408 10410 10412 10412 10413 10415 10416 10418 10421 10421 10425 10432 10429 10421 10422 10427 10428 10429 10430 10428 10430 10432 10431 10431 10433 10435 10435 10437 10439 10442 10445 10447 10450 10454 10457 10458 10458 10458 10461 10465 10468 10469 10470 10471 10472 10473 10473 10474 10475 10476 10478 10480 10480 10480 10481 10482 10482 10482 10484 10486 10487 10490 10492 10494 10496 10498 10498
10376 10377 10378 10380 10381 10383 10384 10384 10385 10386 10386 10386 10387 10387 10388 10390 10392 10393 10395 10398 10400 10401 10401 10403 10405 10407 10408 10410 10415 10420 10416 10412 10415 10419 10419 10420 10419 10417 10418 10420 10419 10420 10422 10424 10425 10425 10427 10430 10432 10434 10437 10440 10443 10445 10444 10444 10448 10453 10456 10458 10458 10458 10459 10459 10460 10461 10463 10465 10467 10469 10470 10469 10468 10469 10470 10470 10472 10473 10475 10478 10479 10480 10483 10486 10488
10364 10365 10366 10367 10370 10371 10372 10373 10374 10374 10375 10375 10376 10376 10377 10379 10380 10381 10383 10385 10387 10389 10389 10390 10393 10396 10397 10399 10404 10405 10403 10404 10408 10410 10409 10410 10408 10406 10406 10407 10408 10409 10411 10412 10414 10415 10417 10419 10419 10420 10422 10424 10429 10432 10431 10431 10435 10439 10443 10444 10444 10444 10445 10445 10445 10448 10451 10453 10455 10456 10457 10457 10455 10456 10457 10458 10460 10460 10462 10467 10467 10466 10469 10475 10477
10353 10353 10354 10356 10358 10358 10359 10361 10362 10363 10363 10364 10365 10365 10366 10367 10368 10369 10371 10372 10374 10376 10378 10378 10380 10384 10386 10388 10391 10392 10393 10396 10398 10399 10399 10398 10396 10394 10394 10395 10396 10398 10399 10401 10403 10404 10406 10407 10406 10407 10409 10412 10416 10418 10417 10417 10421 10425 10428 10430 10431 10431 10431 10431 10433 10436 10439 10440 10442 10443 10443 10443 10443 10444 10444 10445 10446 10447 10450 10455 10454 10453 10458 10462 10464
10341 10341 10343 10345 10346 10346 10347 10348 10349 10350 10352 10352 10354 10354 10354 10355 10357 10357 10359 10360 10361 10363 10366 10367 10368 10370 10373 10376 10379 10380 10382 10385 10386 10386 10387 10385 10384 10382 10382 10382 10384 10387 10390 10391 10391 10392 10393 10393 10395 10396 10398 10400 10402 10403 10403 10405 10408 10410 10412 10415 10417 10417 10416 10417 10420 10423 10425 10427 10428 10429 10429 10429 10429 10430 10431 10432 10432 10433 10437 10441 10442 10442 10446 10449 10449
10329 10330 10332 10333 10334 10334 10335 10336 10336 10337 10339 10340 10342 10343 10343 10344 10345 10346 10347 10349 10350 10352 10353 10355 10356 10358 10360 10364 10367 10369 10370 10372 10373 10374 10374 10373 10371 10369 10368 10370 10373 10377 10379 10378 10378 10379 10380 10381 10384 10387 10387 10387 10387 10389 10391 10393 10394 10395 10398 10400 10403 10403 10403 10404 10407 10408 10411 10413 10414 10414 10416 10416 10416 10416 10417 10418 10419 10421 10423 10427 10430 10431 10433 10435 10435
10317 10318 10320 10321 10321 10322 10323 10324 10324 10324 10326 10327 10329 10331 10332 10333 10334 10335 10336 10338 10339 10340 10341 10343 10345 10347 10349 10352 10355 10356 10357 10359 10360 10360 10360 10358 10357 10356 10357 10359 10362 10364 10365 10365 10365 10367 10367 10368 10372 10375 10375 10374 10375 10377 10378 10379 10380 10382 10383 10385 10387 10389 10389 10391 10392 10394 10396 10398 10399 10400 10401 10402 10403 10403 10403 10404 10406 10408 10410 10414 10416 10418 10420 10421 10421
10305 10306 10307 10308 10309 10310 10311 10311 10311 10312 10314 10315 10317 10319 10320 10321 10322 10324 10326 10327 10328 10329 10330 10332 10334 10336 10338 10340 10341 10343 10345 10346 10346 10346 10345 10345 10345 10346 10347 10348 10349 10350 10352 10353 10354 10355 10355 10355 10359 10362 10362 10362 10364 10366 10366 10366 10367 10369 10369 10370 10373 10374 10376 10378 10379 10380 10381 10383 10384 10386 10387 10388 10389 10389 10389 10391 10392 10394 10397 10400 10402 10404 10405 10407 10408
10293 10294 10295 10296 10297 10298 10298 10298 10299 10300 10302 10304 10306 10308 10308 10309 10312 10313 10314 10315 10317 10318 10320 10322 10323 10325 10327 10328 10329 10330 10331 10332 10332 10332 10333 10334 10335 10335 10336 10337 10337 10337 10340 10342 10342 10342 10343 10344 10346 10349 10350 10351 10353 10354 10354 10354 10354 10355 10355 10357 10358 10360 10363 10365 10366 10367 10368 10369 10370 10371 10372 10373 10374 10375 10375 10377 10379 10382 10384 10386 10388 10389 10390 10392 10393
10282 10283 10284 10285 10286 10286 10287 10288 10289 10290 10292 10294 10296 10297 10298 10300 10302 10302 10302 10304 10308 10309 10310 10312 10313 10314 10316 10317 10317 10318 10319 10320 10320 10321 10323 10324 10324 10324 10324 10325 10326 10326 10328 10329 10329 10330 10332 10333 10334 10336 10338 10339 10341 10341 10341 10342 10342 10342 10343 10343 10345 10347 10349 10351 10352 10354 10355 10356 10357 10358 10358 10358 10359 10360 10361 10363 10366 10369 10371 10372 10373 10374 10375 10377 10378
10272 10273 10273 10274 10275 10276 10277 10279 10280 10281 10282 10284 10286 10288 10289 10290 10291 10291 10293 10296 10299 10299 10300 10302 10304 10304 10305 10306 10307 10308 10309 10309 10310 10311 10313 10313 10313 10313 10314 10315 10315 10315 10316 10317 10319 10320 10321 10322 10324 10325 10326 10327 10328 10329 10329 10330 10330 10331 10331 10332 10333 10335 10336 10337 10339 10341 10342 10344 10344 10345 10345 10345 10345 10346 10347 10349 10352 10353 10355 10356 10357 10358 10360 10361 10363
10262 10263 10263 10264 10266 10267 10268 10270 10272 10273 10273 10274 10276 10279 10280 10280 10280 10282 10285 10287 10288 10290 10292 10293 10293 10293 10295 10296 10298 10299 10299 10300 10301 10302 10303 10304 10303 10304 10304 10304 10304 10305 10305 10307 10309 10310 10312 10313 10313 10314 10314 10314 10316 10317 10318 10319 10319 10319 10320 10321 10322 10323 10324 10325 10327 10328 10329 10330 10330 10331 10331 10331 10331 10331 10332 10334 10336 10337 10338 10340 10341 10343 10345 10346 10349
10253 10253 10254 10256 10257 10258 10260 10261 10262 10263 10264 10265 10267 10270 10271 10271 10272 10274 10275 10278 10280 10281 10283 10283 10283 10284 10286 10287 10288 10289 10290 10291 10292 10293 10293 10294 10294 10294 10294 10294 10295 10295 10296 10298 10300 10301 10302 10303 10302 10302 10303 10304 10305 10306 10307 10308 10308 10308 10309 10310 10311 10312 10313 10314 10314 10315 10316 10317 10317 10317 10318 10317 10317 10317 10318 10319 10322 10323 10323 10325 10328 10330 10332 10334 10338
10244 10245 10246 10247 10248 10248 10250 10252 10252 10252 10254 10257 10259 10262 10263 10263 10264 10265 10267 10269 10271 10272 10273 10274 10275 10276 10277 10278 10279 10280 10281 10283 10283 10284 10284 10284 10285 10285 10284 10284 10286 10287 10288 10290 10291 10292 10292 10292 10292 10293 10294 10295 10295 10296 10297 10297 10298 10298 10299 10299 10300 10301 10301 10301 10302 10303 10303 10304 10305 10305 10305 10305 10305 10305 10306 10308 10310 10310 10312 10314 10318 10320 10321 10324 10329
10237 10237 10237 10238 10239 10240 10241 10243 10242 10244 10247 10250 10251 10252 10253 10254 10256 10257 10259 10261 10262 10263 10264 10265 10266 10267 10267 10269 10271 10272 10273 10274 10274 10275 10275 10275 10276 10276 10276 10277 10278 10279 10281 10282 10282 10282 10282 10283 10283 10284 10285 10285 10286 10287 10287 10288 10288 10288 10288 10288 10288 10289 10289 10289 10290 10291 10291 10293 10294 10295 10295 10294 10294 10295 10296 10299 10300 10301 10303 10307 10310 10311 10312 10315 10317
10229 10230 10229 10230 10231 10231 10232 10234 10235 10238 10241 10243 10243 10243 10245 10247 10249 10249 10250 10252 10253 10255 10256 10257 10258 10259 10260 10261 10263 10264 10265 10265 10266 10267 10267 10267 10268 10269 10269 10270 10271 10272 10273 10273 10273 10274 10274 10275 10275 10276 10276 10277 10277 10278 10278 10278 10278 10278 10277 10277 10277 10276 10277 10278 10279 10280 10282 10284 10285 10285 10285 10285 10285 10286 10288 10290 10292 10293 10296 10299 10300 10301 10302 10304 10305
10221 10221 10221 10221 10222 10223 10225 10227 10230 10232 10234 10234 10235 10236 10238 10239 10240 10241 10242 10244 10246 10247 10249 10250 10251 10252 10253 10254 10255 10256 10257 10258 10259 10259 10260 10261 10261 10262 10262 10263 10264 10264 10265 10265 10266 10266 10266 10266 10267 10268 10269 10269 10269 10269 10268 10267 10267 10266 10266 10265 10266 10266 10268 10270 10271 10273 10275 10276 10276 10276 10276 10276 10277 10278 10280 10283 10285 10286 10288 10289 10290 10291 10292 10293 10294
10212 10212 10213 10214 10215 10216 10219 10221 10224 10225 10225 10226 10228 10229 10231 10231 10232 10233 10235 10236 10238 10241 10242 10244 10245 10245 10246 10246 10247 10249 10250 10251 10252 10253 10254 10254 10255 10255 10255 10256 10256 10257 10257 10258 10258 10259 10259 10260 10261 10261 10261 10261 10260 10259 10258 10257 10256 10256 10256 10257 10259 10260 10262 10263 10263 10264 10265 10265 10266 10267 10267 10268 10270 10272 10274 10276 10277 10278 10278 10279 10280 10281 10282 10283 10283
10203 10204 10205 10207 10208 10210 10213 10215 10215 10216 10217 10218 10220 10222 10223 10224 10224 10226 10228 10230 10232 10234 10235 10236 10237 10238 10238 10240 10241 10242 10244 10245 10246 10247 10248 10248 10248 10248 10248 10248 10249 10249 10250 10250 10251 10252 10253 10254 10255 10254 10253 10252 10250 10249 10247 10247 10247 10249 10250 10251 10252 10252 10253 10254 10254 10254 10255 10256 10257 10258 10259 10261 10263 10265 10265 10267 10268 10268 10269 10270 10271 10272 10273 10273 10274
10196 10196 10198 10200 10202 10205 10207 10207 10207 10208 10209 10211 10213 10215 10216 10216 10217 10220 10222 10224 10225 10227 10228 10229 10230 10231 10232 10234 10236 10237 10238 10240 10241 10241 10241 10241 10241 10241 10241 10241 10241 10242 10243 10244 10245 10246 10247 10247 10246 10246 10244 10242 10240 10239 10239 10241 10242 10243 10244 10244 10244 10244 10245 10246 10246 10247 10248 10249 10250 10251 10252 10254 10255 10256 10257 10258 10259 10260 10260 10261 10263 10264 10264 10265 10265
10189 10189 10191 10194 10196 10198 10199 10199 10199 10201 10202 10204 10206 10208 10209 10210 10212 10214 10216 10217 10218 10219 10220 10222 10223 10225 10227 10228 10230 10231 10233 10234 10235 10235 10235 10234 10234 10234 10234 10235 10235 10236 10237 10238 10239 10240 10240 10239 10238 10236 10235 10233 10233 10234 10235 10236 10237 10237 10237 10237 10238 10238 10239 10239 10240 10241 10241 10243 10244 10244 10245 10246 10247 10249 10250 10250 10251 10252 10252 10253 10255 10256 10256 10257 10258
10182 10183 10185 10187 10189 10190 10191 10192 10193 10195 10196 10197 10200 10202 10203 10204 10205 10207 10208 10210 10211 10212 10214 10216 10217 10219 10221 10223 10224 10226 10227 10228 10228 10228 10228 10228 10228 10229 10229 10229 10230 10231 10232 10233 10234 10234 10233 10231 10230 10229 10228 10228 10229 10230 10231 10231 10231 10231 10232 10232 10232 10233 10233 10234 10234 10235 10235 10236 10237 10238 10239 10240 10241 10242 10243 10243 10244 10245 10246 10247 10248 10249 10250 10251 10252
10176 10178 10179 10181 10182 10183 10184 10185 10187 10189 10190 10191 10193 10195 10196 10197 10199 10200 10202 10204 10205 10207 10208 10210 10212 10213 10215 10217 10218 10219 10220 10220 10221 10222 10222 10223 10223 10224 10224 10224 10225 10226 10228 10228 10228 10227 10226 10225 10224 10223 10224 10224 10225 10226 10226 10226 10226 10226 10227 10227 10227 10228 10228 10229 10229 10230 10230 10231 10232 10233 10234 10235 10235 10236 10237 10237 10238 10239 10241 10242 10243 10243 10244 10245 10246
10170 10172 10173 10174 10176 10177 10178 10179 10181 10183 10184 10186 10187 10188 10190 10191 10193 10194 10196 10198 10200 10201 10203 10204 10206 10208 10209 10210 10212 10213 10214 10214 10215 10216 10217 10218 10218 10219 10219 10220 10221 10222 10223 10223 10222 10221 10220 10219 10219 10219 10220 10220 10221 10221 10221 10222 10222 10222 10223 10223 10223 10224 10224 10225 10225 10226 10226 10227 10228 10229 10229 10230 10230 10231 10232 10233 10234 10235 10236 10237 10238 10238 10239 10240 10241
10164 10166 10168 10169 10170 10171 10173 10174 10176 10178 10179 10180 10182 10183 10184 10186 10187 10189 10191 10192 10194 10196 10198 10199 10201 10202 10203 10205 10206 10207 10208 10209 10210 10211 10212 10213 10213 10214 10214 10215 10217 10218 10218 10217 10216 10215 10215 10215 10215 10216 10216 10216 10217 10218 10218 10218 10219 10219 10220 10220 10220 10220 10221 10222 10222 10223 10223 10224 10225 10225 10226 10226 10227 10228 10228 10229 10229 10230 10231 10232 10233 10234 10235 10235 10236
10160 10161 10163 10164 10165 10166 10168 10169 10171 10173 10174 10175 10176 10178 10179 10181 10182 10184 10185 10187 10189 10191 10193 10195 10196 10197 10198 10200 10201 10202 10204 10205 10206 10207 10208 10208 10209 10209 10210 10211 10212 10212 10212 10212 10211 10211 10211 10211 10212 10212 10213 10214 10214 10215 10215 10216 10216 10216 10217 10217 10217 10218 10218 10219 10219 10220 10220 10221 10221 10222 10222 10223 10223 10224 10224 10225 10225 10226 10227 10228 10229 10229 10230 10231 10231
10155 10156 10158 10159 10160 10162 10163 10164 10166 10167 10169 10170 10172 10173 10175 10176 10178 10180 10181 10183 10185 10187 10189 10190 10192 10193 10194 10196 10197 10198 10200 10201 10202 10203 10204 10204 10204 10205 10206 10207 10208 10208 10208 10208 10207 10207 10208 10208 10209 10210 10210 10211 10211 10212 10212 10213 10213 10213 10214 10214 10214 10215 10215 10216 10216 10217 10217 10217 10217 10218 10218 10219 10219 10220 10220 10221 10222 10223 10223 10224 10225 10225 10226 10226 10227
10150 10152 10153 10155 10156 10157 10158 10160 10161 10163 10164 10166 10167 10169 10170 10172 10174 10176 10178 10180 10182 10183 10185 10186 10188 10189 10191 10192 10194 10195 10197 10198 10198 10199 10200 10200 10201 10201 10202 10203 10203 10204 10204 10204 10204 10204 10205 10205 10206 10207 10207 10208 10209 10209 10210 10210 10210 10210 10211 10211 10211 10211 10212 10212 10213 10213 10213 10213 10214 10214 10215 10215 10216 10217 10217 10218 10219 10219 10220 10220 10221 10221 10222 10223 10223
10147 10148 10149 10151 10152 10153 10155 10156 10158 10159 10160 10162 10164 10165 10167 10169 10171 10173 10175 10177 10178 10180 10181 10183 10185 10186 10188 10189 10191 10192 10193 10194 10195 10196 10197 10197 10197 10198 10199 10199 10200 10200 10200 10200 10201 10201 10202 10203 10204 10204 10205 10205 10206 10206 10206 10207 10207 10207 10208 10208 10208 10208 10209 10209 10209 10210 10210 10210 10211 10211 10212 10213 10213 10214 10214 10215 10215 10216 10216 10217 10218 10218 10219 10220 10220
10143 10144 10146 10147 10148 10150 10151 10153 10155 10156 10158 10159 10161 10163 10164 10166 10168 10170 10172 10174 10175 10177 10179 10180 10182 10184 10185 10187 10188 10189 10190 10191 10192 10193 10194 10194 10194 10195 10195 10196 10196 10197 10197 10197 10197 10198 10199 10200 10201 10201 10202 10202 10203 10203 10204 10204 10204 10205 10205 10205 10205 10206 10206 10206 10206 10207 10207 10207 10208 10209 10210 10210 10211 10211 10212 10212 10213 10213 10214 10215 10215 10216 10216 10217 10217
10140 10141 10142 10144 10145 10147 10148 10150 10152 10153 10155 10156 10158 10160 10162 10164 10166 10167 10169 10171 10173 10174 10176 10178 10180 10181 10183 10184 10186 10187 10188 10188 10189 10190 10191 10191 10191 10192 10192 10193 10193 10193 10193 10194 10194 10195 10196 10197 10198 10199 10200 10200 10201 10201 10202 10202 10202 10202 10203 10203 10203 10203 10203 10203 10204 10204 10204 10205 10206 10206 10207 10207 10208 10209 10209 10210 10210 10211 10212 10212 10213 10213 10213 10214 10214
10137 10138 10140 10141 10143 10144 10146 10147 10149 10151 10152 10154 10156 10157 10159 10161 10163 10165 10167 10169 10170 10172 10174 10175 10177 10179 10180 10182 10183 10184 10185 10186 10186 10187 10188 10188 10188 10189 10189 10189 10189 10190 10191 10191 10192 10193 10194 10195 10196 10197 10197 10198 10199 10199 10200 10200 10200 10200 10200 10200 10200 10201 10201 10201 10201 10202 10202 10203 10204 10204 10205 10206 10206 10207 10208 10208 10208 10209 10209 10210 10210 10210 10211 10211 10212
10135 10136 10138 10139 10141 10142 10144 10145 10147 10149 10150 10152 10154 10155 10157 10159 10161 10163 10164 10166 10168 10170 10171 10173 10175 10176 10178 10179 10180 10181 10182 10183 10184 10184 10185 10185 10185 10185 10185 10186 10186 10187 10188 10189 10190 10191 10192 10193 10194 10195 10195 10196 10197 10197 10198 10198 10198 10197 10197 10197 10198 10198 10198 10199 10199 10200 10200 10201 10202 10203 10203 10204 10205 10205 10206 10206 10206 10207 10207 10207 10208 10208 10208 10209 10209
10132 10134 10136 10137 10139 10140 10142 10144 10145 10147 10148 10150 10152 10153 10155 10157 10158 10160 10162 10164 10166 10167 10169 10170 10172 10173 10175 10176 10177 10178 10179 10180 10181 10181 10182 10182 10182 10182 10182 10182 10183 10184 10186 10187 10188 10189 10190 10191 10192 10192 10193 10193 10194 10195 10195 10195 10195 10195 10195 10195 10196 10196 10196 10197 10197 10198 10198 10199 10200 10201 10202 10202 10203 10203 10203 10204 10204 10204 10204 10205 10205 10205 10206 10206 10206
10130 10132 10133 10135 10137 10138 10140 10142 10143 10145 10147 10148 10150 10152 10153 10155 10156 10158 10159 10161 10163 10164 10166 10167 10169 10170 10172 10173 10174 10175 10176 10176 10177 10178 10178 10179 10179 10179 10179 10179 10180 10182 10183 10185 10186 10187 10188 10189 10189 10190 10190 10191 10192 10193 10193 10193 10193 10193 10193 10193 10194 10194 10195 10195 10196 10196 10197 10198 10199 10200 10200 10200 10201 10201 10201 10202 10202 10202 10203 10203 10203 10203 10203 10204 10204
10128 10129 10131 10133 10134 10136 10138 10139 10141 10143 10144 10146 10148 10150 10151 10152 10154 10155 10157 10158 10160 10161 10163 10164 10165 10167 10168 10169 10171 10172 10172 10173 10174 10174 10175 10175 10175 10176 10176 10176 10177 10179 10181 10182 10184 10185 10186 10186 10187 10188 10188 10189 10190 10190 10190 10191 10191 10191 10191 10191 10192 10192 10193 10194 10194 10195 10195 10196 10197 10198 10199 10199 10199 10200 10200 10200 10200 10201 10201 10201 10201 10201 10202 10202 10202
10126 10127 10129 10130 10132 10134 10135 10137 10138 10140 10142 10144 10145 10147 10149 10150 10151 10153 10154 10155 10157 10158 10159 10160 10162 10163 10164 10166 10167 10168 10169 10169 10170 10171 10171 10172 10172 10173 10173 10173 10175 10176 10178 10180 10181 10182 10183 10184 10185 10185 10186 10187 10187 10188 10188 10188 10189 10189 10189 10190 10190 10191 10191 10192 10193 10193 10194 10195 10196 10197 10197 10198 10198 10198 10198 10199 10199 10199 10199 10200 10200 10200 10200 10200 10200